Regional Weather Roundup
Issued by NWS

Home | Current Version | Previous Version | Text Only | Print | Product List | Glossary On
Versions: 1 2 3 4 5 6 7 8 9 10 11 12 13 14 15 16 17 18 19 20 21 22 23 24 25 26 27 28 29 30 31 32 33 34 35 36 37 38 39 40 41 42 43 44 45 46 47 48 49 50
000
ASUS45 KBOI 022110
RWRID

IDAHO REGIONAL WEATHER ROUNDUP
NATIONAL WEATHER SERVICE BOISE ID
300 PM MDT SUN AUG 02 2015

NOTE: "FAIR" INDICATES FEW OR NO CLOUDS BELOW 12000 FEET
WITH NO SIGNIFICANT WEATHER AND/OR OBSTRUCTIONS TO VISIBILITY

IDZ012-014-022200-
SOUTHWEST IDAHO


CITY           SKY/WX    TMP DP  RH WIND       PRES   REMARKS
BOISE          MOSUNNY   98  41  14 NW8       29.86F HX  93
CALDWELL       MOSUNNY   97  43  15 N5        29.85F HX  92
MOUNTAIN HOME  PTSUNNY  100  35  10 VRB3      29.86F HX  94
$$

IDZ016-017-022200-
SOUTHCENTRAL IDAHO


CITY           SKY/WX    TMP DP  RH WIND       PRES   REMARKS
BURLEY         PTSUNNY   91  38  15 CALM      29.96F
JEROME         PTSUNNY   91  44  19 NW3       29.97F
TWIN FALLS     MOSUNNY   95  37  13 NW10      29.94F HX  90
$$

IDZ019>023-022200-
SOUTHEAST IDAHO


CITY           SKY/WX    TMP DP  RH WIND       PRES   REMARKS
IDAHO FALLS    SUNNY     94  31  10 CALM      30.02F
POCATELLO      MOSUNNY   96  33  11 NW9       29.99F HX  91
REXBURG        SUNNY     94  28   9 VRB6      30.03F
$$

IDZ006-010-011-018-031-032-022200-
CENTRAL IDAHO MOUNTAINS


CITY           SKY/WX    TMP DP  RH WIND       PRES   REMARKS
MCCALL         SUNNY     93  32  11 W10       30.03F
HAILEY         MOSUNNY   86  45  23 SE14      30.07F
STANLEY          N/A     89  22   8 CALM      30.14F
SALMON         SUNNY     90  39  17 W3        29.95F
CHALLIS        SUNNY     90  35  14 SE5       30.03F
$$

IDZ002-004-006-007-026-022200-
NORTHERN IDAHO


CITY           SKY/WX    TMP DP  RH WIND       PRES   REMARKS
LEWISTON       SUNNY     98  31   9 VRB3      29.83F HX  92
LOWELL           N/A    100  35  10 CALM      29.81F HX  94
COEUR D`ALENE  SUNNY     93  36  13 S6        29.88F
MULLAN PASS    SUNNY     83  22  10 VRB6      30.17F
$$



USA.gov is the U.S. government's official web portal to all federal, state and local government web resources and services.